Tracking 31027 objects as of 19-Jul-2025
HD Live streaming from Space Station
objects crossing your sky now

STARLINK-31002

Track STARLINK-31002 now!
10-day predictions
STARLINK-31002 is classified as:


NORAD ID: 58495
Int'l Code: 2023-186Y
Perigee: 565.1 km
Apogee: 567.3 km
Inclination: 43.0 °
Period: 95.8 minutes
Semi major axis: 6937 km
RCS: Unknown
Launch date: December 3, 2023
Source: United States (US)
Launch site: AIR FORCE EASTERN TEST RANGE (AFETR)
Your satellite tracking list
CZ-4C DEB
Track 1 satellite(s)




NASA's NSSDC Master Catalog

Two Line Element Set (TLE):
1 58495U 23186Y   25199.47028715  .00000164  00000-0  27185-4 0  9999
2 58495  43.0025 259.7183 0001590 270.3172  89.7488 15.02536602 90787
Source of the keplerian elements: AFSPC